| time (UTC) | temp C | wind direction | speed KPH | gust KPH | rain 1hr cm | rain 24hr cm | rain mn cm | humidity % | barometer mb |
| 20260507100019 | 15 | 112 | 1.6 | 4.8 | 0.00 | 0.00 | 0.00 | 49 | 1013.8 |
| 20260507095028 | 13 | 107 | 3.2 | 4.8 | 0.00 | 0.00 | 0.00 | 48 | 1014.0 |
| 20260507094035 | 12 | 250 | 3.2 | 4.8 | 0.00 | 0.00 | 0.00 | 55 | 1014.0 |
| 20260507093050 | 12 | 276 | 1.6 | 9.7 | 0.00 | 0.00 | 0.00 | 62 | 1013.8 |
| 20260507092017 | 12 | 264 | 6.4 | 9.7 | 0.00 | 0.00 | 0.00 | 64 | 1013.8 |
| 20260507091041 | 14 | 203 | 4.8 | 11.3 | 0.00 | 0.00 | 0.00 | 61 | 1013.8 |
| 20260507090019 | 13 | 153 | 3.2 | 6.4 | 0.00 | 0.00 | 0.00 | 62 | 1013.7 |
| 20260507085025 | 13 | 162 | 3.2 | 6.4 | 0.00 | 0.00 | 0.00 | 67 | 1014.0 |
| 20260507084021 | 12 | 174 | 1.6 | 6.4 | 0.00 | 0.00 | 0.00 | 69 | 1013.9 |
| 20260507083051 | 12 | 98 | 3.2 | 9.7 | 0.00 | 0.00 | 0.00 | 72 | 1013.9 |
| 20260507082033 | 12 | 92 | 1.6 | 4.8 | 0.00 | 0.00 | 0.00 | 74 | 1013.9 |
| 20260507081028 | 12 | 139 | 4.8 | 9.7 | 0.00 | 0.00 | 0.00 | 76 | 1013.7 |
| 20260507080038 | 12 | 84 | 3.2 | 6.4 | 0.00 | 0.00 | 0.00 | 77 | 1013.6 |
| 20260507075041 | 11 | 123 | 4.8 | 9.7 | 0.00 | 0.00 | 0.00 | 80 | 1013.5 |
| 20260507074018 | 11 | 48 | 1.6 | 4.8 | 0.00 | 0.00 | 0.00 | 84 | 1013.4 |
| 20260507073025 | 10 | 58 | 1.6 | 3.2 | 0.00 | 0.00 | 0.00 | 84 | 1013.4 |
| 20260507072021 | 10 | 82 | 1.6 | 3.2 | 0.00 | 0.00 | 0.00 | 84 | 1013.6 |
| 20260507071026 | 9 | 105 | 1.6 | 3.2 | 0.00 | 0.00 | 0.00 | 85 | 1013.5 |
| 20260507070034 | 8 | 115 | 0.0 | 1.6 | 0.00 | 0.00 | 0.00 | 86 | 1013.5 |
| 20260507065029 | 7 | 0.0 | 0.0 | 0.00 | 0.00 | 0.00 | 89 | 1013.3 | |
| 20260507064022 | 7 | 0.0 | 0.0 | 0.00 | 0.00 | 0.00 | 92 | 1013.4 | |
| 20260507063043 | 6 | 216 | 0.0 | 1.6 | 0.00 | 0.00 | 0.00 | 94 | 1013.2 |
| 20260507062018 | 5 | 216 | 0.0 | 3.2 | 0.00 | 0.00 | 0.00 | 95 | 1013.2 |
| 20260507061045 | 5 | 216 | 1.6 | 3.2 | 0.00 | 0.00 | 0.00 | 95 | 1013.4 |
| 20260507060019 | 5 | 217 | 1.6 | 3.2 | 0.00 | 0.00 | 0.00 | 96 | 1013.2 |
| 20260507055028 | 4 | 208 | 1.6 | 3.2 | 0.00 | 0.00 | 0.00 | 96 | 1013.1 |
| 20260507054033 | 4 | 0.0 | 0.0 | 0.00 | 0.00 | 0.00 | 96 | 1013.0 | |
| 20260507053029 | 3 | 0.0 | 0.0 | 0.00 | 0.00 | 0.00 | 96 | 1012.9 | |
| 20260507052019 | 3 | 0.0 | 0.0 | 0.00 | 0.00 | 0.00 | 96 | 1012.9 | |
| 20260507051041 | 3 | 0.0 | 0.0 | 0.00 | 0.00 | 0.00 | 96 | 1012.9 | |
| 20260507050018 | 3 | 0.0 | 0.0 | 0.00 | 0.00 | 0.00 | 97 | 1012.7 | |
| 20260507045029 | 3 | 0.0 | 0.0 | 0.00 | 0.00 | 0.00 | 96 | 1012.8 | |
| 20260507044023 | 3 | 206 | 0.0 | 1.6 | 0.00 | 0.00 | 0.00 | 96 | 1012.8 |
| 20260507043042 | 3 | 205 | 1.6 | 3.2 | 0.00 | 0.00 | 0.00 | 96 | 1012.8 |
| 20260507042021 | 3 | 206 | 1.6 | 3.2 | 0.00 | 0.00 | 0.00 | 96 | 1012.8 |
| 20260507041025 | 3 | 194 | 1.6 | 3.2 | 0.00 | 0.00 | 0.00 | 96 | 1012.7 |
| 20260507040018 | 3 | 0.0 | 0.0 | 0.00 | 0.00 | 0.00 | 96 | 1012.8 | |
| 20260507035041 | 3 | 0.0 | 0.0 | 0.00 | 0.00 | 0.00 | 96 | 1012.8 | |
| 20260507034021 | 4 | 165 | 0.0 | 1.6 | 0.00 | 0.00 | 0.00 | 96 | 1012.9 |
| 20260507033025 | 3 | 161 | 0.0 | 3.2 | 0.00 | 0.00 | 0.00 | 96 | 1012.8 |
| 20260507032023 | 3 | 0.0 | 0.0 | 0.00 | 0.00 | 0.00 | 96 | 1012.7 | |
| 20260507031027 | 4 | 0.0 | 0.0 | 0.00 | 0.00 | 0.00 | 96 | 1012.7 | |
| 20260507030033 | 4 | 0.0 | 0.0 | 0.00 | 0.00 | 0.00 | 96 | 1012.8 | |
| 20260507025029 | 4 | 0.0 | 0.0 | 0.00 | 0.00 | 0.00 | 95 | 1012.7 | |
| 20260507024018 | 5 | 0.0 | 0.0 | 0.00 | 0.00 | 0.00 | 95 | 1012.6 | |
| 20260507023042 | 5 | 0.0 | 0.0 | 0.00 | 0.00 | 0.00 | 95 | 1012.6 | |
| 20260507022023 | 5 | 0.0 | 0.0 | 0.00 | 0.00 | 0.00 | 95 | 1012.8 | |
| 20260507021028 | 5 | 0.0 | 0.0 | 0.00 | 0.00 | 0.00 | 94 | 1012.5 | |
| 20260507020022 | 5 | 0.0 | 0.0 | 0.00 | 0.00 | 0.00 | 94 | 1012.5 | |
| 20260507015028 | 5 | 0.0 | 0.0 | 0.00 | 0.00 | 0.00 | 94 | 1012.5 | |
| 20260507014035 | 5 | 0.0 | 0.0 | 0.00 | 0.00 | 0.00 | 94 | 1012.4 | |
| 20260507013028 | 5 | 0.0 | 0.0 | 0.00 | 0.00 | 0.00 | 93 | 1012.6 | |
| 20260507012023 | 5 | 0.0 | 0.0 | 0.00 | 0.00 | 0.00 | 93 | 1012.5 | |
| 20260507010019 | 6 | 0.0 | 0.0 | 0.00 | 0.00 | 0.00 | 92 | 1012.6 | |
| 20260507005026 | 5 | 0.0 | 0.0 | 0.00 | 0.00 | 0.00 | 90 | 1012.3 | |
| 20260507004021 | 6 | 0.0 | 0.0 | 0.00 | 0.00 | 0.00 | 90 | 1012.5 | |
| 20260507003027 | 6 | 0.0 | 0.0 | 0.00 | 0.00 | 0.00 | 90 | 1012.4 | |
| 20260507002035 | 6 | 0.0 | 0.0 | 0.00 | 0.00 | 0.00 | 89 | 1012.5 | |
| 20260507001027 | 7 | 0.0 | 0.0 | 0.00 | 0.00 | 0.00 | 88 | 1012.6 | |
| 20260507000018 | 7 | 0.0 | 0.0 | 0.00 | 0.00 | 0.00 | 87 | 1012.5 | |
| 20260506235042 | 7 | 0.0 | 0.0 | 0.00 | 0.00 | 0.00 | 85 | 1012.6 | |
| 20260506234018 | 8 | 0.0 | 0.0 | 0.00 | 0.00 | 0.00 | 84 | 1012.5 | |
| 20260506233026 | 8 | 0.0 | 0.0 | 0.00 | 0.00 | 0.00 | 81 | 1012.4 | |
| 20260506232019 | 9 | 38 | 0.0 | 3.2 | 0.00 | 0.00 | 0.00 | 78 | 1012.3 |
| 20260506231026 | 9 | 28 | 0.0 | 1.6 | 0.00 | 0.00 | 0.00 | 77 | 1012.4 |
| 20260506230034 | 10 | 28 | 1.6 | 4.8 | 0.00 | 0.00 | 0.00 | 76 | 1012.7 |
| 20260506225029 | 10 | 34 | 0.0 | 1.6 | 0.00 | 0.00 | 0.00 | 75 | 1012.4 |
| 20260506224017 | 10 | 51 | 0.0 | 1.6 | 0.00 | 0.00 | 0.00 | 75 | 1012.4 |
| 20260506223102 | 10 | 61 | 1.6 | 6.4 | 0.00 | 0.00 | 0.00 | 74 | 1012.3 |
| 20260506222018 | 10 | 71 | 1.6 | 4.8 | 0.00 | 0.00 | 0.00 | 73 | 1012.3 |
| 20260506221026 | 11 | 73 | 0.0 | 3.2 | 0.00 | 0.00 | 0.00 | 71 | 1012.2 |
| 20260506220034 | 11 | 53 | 1.6 | 4.8 | 0.00 | 0.00 | 0.00 | 70 | 1012.3 |
| 20260506215028 | 11 | 51 | 1.6 | 3.2 | 0.00 | 0.00 | 0.00 | 69 | 1012.1 |
| 20260506214018 | 11 | 42 | 1.6 | 6.4 | 0.00 | 0.00 | 0.00 | 68 | 1012.2 |
| 20260506213029 | 11 | 47 | 1.6 | 4.8 | 0.00 | 0.00 | 0.00 | 68 | 1012.3 |
| 20260506212019 | 11 | 51 | 1.6 | 3.2 | 0.00 | 0.00 | 0.00 | 68 | 1012.1 |
| 20260506211043 | 11 | 63 | 1.6 | 6.4 | 0.00 | 0.00 | 0.00 | 67 | 1011.9 |
| 20260506205045 | 11 | 85 | 1.6 | 6.4 | 0.00 | 0.00 | 0.00 | 66 | 1012.1 |
| 20260506204027 | 11 | 58 | 3.2 | 11.3 | 0.00 | 0.00 | 0.00 | 65 | 1012.1 |
| 20260506203026 | 11 | 38 | 4.8 | 9.7 | 0.00 | 0.00 | 0.00 | 65 | 1011.9 |
| 20260506202018 | 11 | 54 | 1.6 | 6.4 | 0.00 | 0.00 | 0.00 | 64 | 1011.6 |
| 20260506201027 | 11 | 42 | 3.2 | 9.7 | 0.00 | 0.00 | 0.00 | 63 | 1011.8 |
| 20260506200159 | 11 | 29 | 1.6 | 4.8 | 0.00 | 0.00 | 0.00 | 64 | 1011.6 |
| 20260506195041 | 12 | 32 | 1.6 | 3.2 | 0.00 | 0.00 | 0.00 | 64 | 1011.5 |
| 20260506194020 | 12 | 11 | 0.0 | 3.2 | 0.00 | 0.00 | 0.00 | 64 | 1011.1 |
| 20260506193024 | 12 | 26 | 1.6 | 4.8 | 0.00 | 0.00 | 0.00 | 64 | 1011.4 |
| 20260506192020 | 12 | 6 | 1.6 | 6.4 | 0.00 | 0.00 | 0.00 | 64 | 1011.3 |
| 20260506191028 | 12 | 40 | 3.2 | 9.7 | 0.00 | 0.00 | 0.00 | 62 | 1011.3 |
| 20260506190033 | 12 | 32 | 4.8 | 11.3 | 0.00 | 0.00 | 0.00 | 62 | 1011.2 |
| 20260506185048 | 12 | 27 | 4.8 | 14.5 | 0.00 | 0.00 | 0.00 | 61 | 1011.2 |
| 20260506184017 | 12 | 41 | 4.8 | 12.9 | 0.00 | 0.00 | 0.00 | 60 | 1010.9 |
| 20260506183043 | 12 | 33 | 6.4 | 11.3 | 0.00 | 0.00 | 0.00 | 60 | 1011.0 |
| 20260506182019 | 12 | 44 | 4.8 | 12.9 | 0.00 | 0.00 | 0.00 | 62 | 1010.9 |
| 20260506181027 | 12 | 26 | 3.2 | 9.7 | 0.00 | 0.00 | 0.00 | 61 | 1010.8 |
| 20260506180020 | 12 | 38 | 4.8 | 11.3 | 0.00 | 0.00 | 0.00 | 60 | 1010.7 |
| 20260506175026 | 12 | 50 | 3.2 | 9.7 | 0.00 | 0.00 | 0.00 | 61 | 1010.8 |
| 20260506174033 | 12 | 58 | 4.8 | 11.3 | 0.00 | 0.00 | 0.00 | 60 | 1010.7 |
| 20260506173027 | 12 | 62 | 1.6 | 6.4 | 0.00 | 0.00 | 0.00 | 60 | 1010.7 |
| 20260506172017 | 12 | 51 | 4.8 | 11.3 | 0.00 | 0.00 | 0.00 | 61 | 1010.4 |
| 20260506171043 | 12 | 45 | 4.8 | 11.3 | 0.00 | 0.00 | 0.00 | 62 | 1010.6 |
| 20260506170018 | 12 | 69 | 4.8 | 12.9 | 0.00 | 0.00 | 0.00 | 61 | 1010.5 |
| 20260506165025 | 12 | 38 | 4.8 | 9.7 | 0.00 | 0.00 | 0.00 | 61 | 1010.6 |
| 20260506164019 | 13 | 38 | 8.0 | 16.1 | 0.00 | 0.00 | 0.00 | 60 | 1010.6 |
| 20260506163046 | 13 | 51 | 8.0 | 17.7 | 0.00 | 0.00 | 0.00 | 60 | 1010.6 |
| 20260506162033 | 12 | 69 | 3.2 | 12.9 | 0.00 | 0.00 | 0.00 | 63 | 1010.5 |
| 20260506161027 | 12 | 46 | 8.0 | 16.1 | 0.00 | 0.00 | 0.00 | 63 | 1010.6 |
| 20260506160018 | 12 | 51 | 9.7 | 20.9 | 0.00 | 0.00 | 0.00 | 63 | 1010.7 |
| 20260506155043 | 13 | 25 | 6.4 | 20.9 | 0.00 | 0.00 | 0.00 | 57 | 1010.6 |
| 20260506154035 | 13 | 70 | 4.8 | 12.9 | 0.00 | 0.00 | 0.00 | 56 | 1010.7 |
| 20260506153025 | 13 | 69 | 4.8 | 11.3 | 0.00 | 0.00 | 0.00 | 58 | 1010.6 |
| 20260506152019 | 13 | 37 | 8.0 | 14.5 | 0.00 | 0.00 | 0.00 | 58 | 1010.6 |
| 20260506151026 | 12 | 5 | 6.4 | 12.9 | 0.00 | 0.00 | 0.00 | 60 | 1010.6 |
| 20260506150033 | 12 | 350 | 6.4 | 14.5 | 0.00 | 0.00 | 0.00 | 61 | 1010.7 |
| 20260506145027 | 13 | 51 | 6.4 | 17.7 | 0.00 | 0.00 | 0.00 | 61 | 1010.6 |
| 20260506144022 | 13 | 24 | 9.7 | 16.1 | 0.00 | 0.00 | 0.00 | 58 | 1010.6 |
| 20260506143042 | 13 | 31 | 6.4 | 22.5 | 0.00 | 0.00 | 0.00 | 58 | 1010.6 |
| 20260506142019 | 13 | 12 | 9.7 | 24.1 | 0.00 | 0.00 | 0.00 | 57 | 1010.6 |
| 20260506141025 | 13 | 34 | 4.8 | 11.3 | 0.00 | 0.00 | 0.00 | 56 | 1010.5 |
| 20260506140020 | 13 | 25 | 6.4 | 16.1 | 0.00 | 0.00 | 0.00 | 57 | 1010.5 |
| 20260506135026 | 13 | 38 | 8.0 | 17.7 | 0.00 | 0.00 | 0.00 | 55 | 1010.6 |
| 20260506134033 | 13 | 41 | 8.0 | 16.1 | 0.00 | 0.00 | 0.00 | 55 | 1010.4 |
| 20260506133049 | 13 | 37 | 6.4 | 14.5 | 0.00 | 0.00 | 0.00 | 55 | 1010.5 |
| 20260506132017 | 14 | 24 | 8.0 | 20.9 | 0.00 | 0.00 | 0.00 | 53 | 1010.6 |
| 20260506131043 | 13 | 47 | 8.0 | 16.1 | 0.00 | 0.00 | 0.00 | 55 | 1010.5 |
| 20260506130020 | 15 | 7 | 6.4 | 20.9 | 0.00 | 0.00 | 0.00 | 52 | 1010.5 |
| 20260506125026 | 13 | 26 | 9.7 | 16.1 | 0.00 | 0.00 | 0.00 | 54 | 1010.5 |
| 20260506124041 | 14 | 48 | 8.0 | 20.9 | 0.00 | 0.00 | 0.00 | 53 | 1010.4 |
| 20260506123026 | 13 | 17 | 6.4 | 14.5 | 0.00 | 0.00 | 0.00 | 54 | 1010.3 |
| 20260506122034 | 14 | 27 | 6.4 | 14.5 | 0.00 | 0.00 | 0.00 | 52 | 1010.5 |
| 20260506121028 | 13 | 28 | 9.7 | 20.9 | 0.00 | 0.00 | 0.00 | 54 | 1010.7 |
| 20260506120017 | 13 | 1 | 8.0 | 17.7 | 0.00 | 0.00 | 0.00 | 55 | 1010.6 |
| 20260506115102 | 13 | 24 | 9.7 | 16.1 | 0.00 | 0.00 | 0.00 | 55 | 1010.5 |
| 20260506114018 | 13 | 13 | 9.7 | 27.4 | 0.00 | 0.00 | 0.00 | 54 | 1010.6 |
| 20260506113025 | 13 | 50 | 12.9 | 29.0 | 0.00 | 0.00 | 0.00 | 54 | 1010.4 |
| 20260506112041 | 13 | 51 | 8.0 | 22.5 | 0.00 | 0.00 | 0.00 | 54 | 1010.6 |
| 20260506111108 | 13 | 20 | 8.0 | 14.5 | 0.00 | 0.00 | 0.00 | 53 | 1010.6 |
| 20260506110028 | 13 | 10 | 9.7 | 20.9 | 0.00 | 0.00 | 0.00 | 51 | 1010.6 |
| 20260506105027 | 13 | 39 | 9.7 | 22.5 | 0.00 | 0.00 | 0.00 | 56 | 1010.5 |
| 20260506104018 | 13 | 14 | 8.0 | 14.5 | 0.00 | 0.00 | 0.00 | 59 | 1010.6 |
| 20260506103041 | 12 | 23 | 6.4 | 17.7 | 0.00 | 0.00 | 0.00 | 59 | 1010.4 |
| 20260506102039 | 12 | 5 | 6.4 | 16.1 | 0.00 | 0.00 | 0.00 | 60 | 1010.7 |
| 20260506101106 | 12 | 40 | 8.0 | 22.5 | 0.00 | 0.00 | 0.00 | 61 | 1010.7 |